Terminal Aerodrome Forecast
Issued by NWS Mt. Holly, NJ

Home | Current Version | Previous Version | Text Only | Print | Product List | Glossary On
Versions: 1 2 3 4 5 6 7 8 9 10 11 12 13 14 15 16 17 18 19 20 21 22 23
000
FTUS41 KPHI 301136
TAFRDG
TAF
KRDG 301136Z 3012/0112 VRB03KT P6SM BKN070
      TEMPO 3012/3013 -SHRA
     FM301300 15005KT P6SM BKN060
     FM301500 18010G17KT P6SM SHRA SCT035 BKN050
      TEMPO 3019/3022 4SM TSRA BKN050CB
     FM302200 16006KT P6SM SHRA SCT035 BKN050
      TEMPO 3022/0101 5SM TSRA BR BKN035CB
     FM010300 15003KT 4SM -SHRA BR BKN035 OVC050
     FM011000 20004KT 4SM -SHRA BR BKN035 OVC050=

USA.gov is the U.S. government's official web portal to all federal, state and local government web resources and services.